SES-15 (WAAS/PRN 133)

Last updated on Wed Sep 17 2025 00:03:27 GMT+0000 (Coordinated Universal Time)

1 42709U 17026A 25258.70166315 .00000043 00000+0 00000+0 0 9994 2 42709 0.0199 343.0846 0000298 252.0550 243.1972 1.00269486 4681
UTC large
Height (km)
Speed (km/s)
/
Latitude / Longitude
Inclination (degrees)
Orbital Period (minutes)
Azimuth
Elevation
Range (km)
Doppler Factor

Next 0 passes for location: London (51.5072 / 0.1276)

Sorry there are no passes over London.